Content
SEND FEEDBACK

Daily
Averages
Monthly
Summary
United States of America

ST. LOUIS, MISSOURI


Home > North America > United States > Missouri
Elevation: 163 meters     Latitude: 38 45N     Longitude: 090 22W

WEATHER
 
SELECT A DAY
Number of Records: 199,900;   Date Range: 1/1/95 - 10/29/14
 
SHARE

PRINT THIS DATA

[ ← Previous Day ]
WEATHER ALMANAC - 8 FEBRUARY, 2013
[ Next Day → ]
[ °F ]   °C
Weather ElementAverageHighLow
Temperature1.7 °C3 °C (1:28 am)0 °C (11:54 pm)
Dewpoint-2.1 °C1 °C (1:28 am)-3.9 °C (10:54 pm)
Humidity76.3 %87 % (1:28 am)67 % (2:54 pm)
Barometer1026.1 hPa1029.1 hPa (7:54 pm)1019 hPa (1:28 am)
Wind Speed13.4 km/h25.9 km/h (4:54 am)
Wind Gust31.5 km/h (3:54 am)
Weather ElementAverage
Visibility13.8 km
Wind DirectionSW (223.6 °)

Weather ElementTotal
Precipitation---
Heating Degree Days16.8 (Base 18.3)
Averaged from 25 records on 8 February, 2013
WEATHER CONDITIONS BREAKOUT
WIND DIRECTION BREAKOUT
WEATHER BY HOUR - 8 FEBRUARY, 2013
[ °F ]   °C
Local TimeTemperatureDewpointHumidityBarometerVisibilityWind DirectionWind SpeedGust SpeedPrecipitationEventsConditions
1:28 AM3 °C1 °C87 %1019 hPa8 kmNNW (330°)18.5 km/hOvercast
1:54 AM3 °C1 °C87 %1019.6 hPa6.4 kmWNW (300°)20.4 km/hOvercast
2:54 AM2.2 °C0 °C86 %1020.3 hPa6.4 kmWNW (300°)16.7 km/hOvercast
3:54 AM2.2 °C0 °C86 %1021.3 hPa6.4 kmNW (320°)20.4 km/h31.5 km/hOvercast
4:54 AM1.7 °C-1.1 °C82 %1022.4 hPa8 kmNNW (330°)25.9 km/hHaze
5:54 AM1.1 °C-1.7 °C82 %1023.7 hPa12.9 kmNNW (340°)16.7 km/h29.6 km/hOvercast
6:54 AM1.1 °C-1.7 °C82 %1025.1 hPa14.5 kmNNW (330°)16.7 km/hOvercast
7:54 AM1.1 °C-1.7 °C82 %1026.1 hPa12.9 kmNNW (330°)22.2 km/h31.5 km/hOvercast
8:36 AM1 °C-2 °C81 %1026.4 hPa14.5 kmNorth (360°)16.7 km/h29.6 km/hOvercast
8:54 AM1.1 °C-2.2 °C79 %1027.1 hPa14.5 kmNNW (330°)16.7 km/hOvercast
9:54 AM1.7 °C-2.2 °C76 %1027.4 hPa16.1 kmNorth (350°)11.1 km/hOvercast
10:54 AM1.7 °C-2.8 °C72 %1028.1 hPa16.1 kmNNW (340°)14.8 km/hOvercast
11:54 AM2.2 °C-2.8 °C70 %1028.1 hPa16.1 kmNNE (20°)11.1 km/hOvercast
12:54 PM2.2 °C-2.8 °C70 %1027.8 hPa16.1 kmNorth (350°)13 km/hOvercast
1:54 PM2.2 °C-2.8 °C70 %1027.4 hPa16.1 kmNorth (350°)11.1 km/hOvercast
2:54 PM2.8 °C-2.8 °C67 %1027.8 hPa16.1 kmNorth (350°)11.1 km/hOvercast
3:54 PM2.2 °C-2.8 °C70 %1028.4 hPa16.1 kmCalmOvercast
4:54 PM2.2 °C-2.8 °C70 %1028.8 hPa16.1 kmNNE (30°)7.4 km/hOvercast
5:54 PM2.2 °C-2.8 °C70 %1028.1 hPa16.1 kmNE (40°)7.4 km/hOvercast
6:54 PM1.7 °C-2.8 °C72 %1028.1 hPa16.1 kmEast (90°)13 km/hOvercast
7:54 PM1.7 °C-2.8 °C72 %1029.1 hPa16.1 kmNE (50°)5.6 km/hOvercast
8:54 PM1.1 °C-2.8 °C75 %1028.8 hPa16.1 kmEast (80°)7.4 km/hOvercast
9:54 PM1.1 °C-3.3 °C73 %1029.1 hPa16.1 kmEast (90°)9.3 km/hOvercast
10:54 PM0.6 °C-3.9 °C72 %1028.4 hPa16.1 kmEast (90°)11.1 km/hOvercast
11:54 PM0 °C-3.9 °C75 %1028.4 hPa16.1 kmEast (90°)11.1 km/hOvercast
Hourly data recorded from KSUS, located 0 kilometers away from St. Louis, Missouri







STORIES FROM OUR PARTNERS